This demonstration page uses our WeatherBlox Daily Observations layout. Learn more.

Left ArrowRight Arrow

39.08367, -84.50855

Hourly Observations for April 22, 2018

Temp ( °F °C ) Dew Point ( °F °C ) Humidity (%) Winds ( mph kmh ) Pressure ( in mb ) Visibility ( mi km ) Precip ( " mm )
12:53 am 00:53 Clear 50 10 31 -0.6 48 48 N N/A 30.32 1027 10 16 N/A
1:53 am 01:53 Clear 47 8.3 37 2.8 69 69 NE 3 6 30.33 1027 10 16 N/A
2:53 am 02:53 Clear 45 7.2 38 3.3 77 77 N N/A 30.32 1027 10 16 N/A
3:53 am 03:53 Clear 45 7.2 40 4.4 83 83 N N/A 30.29 1026 10 16 N/A
4:53 am 04:53 Clear 46 7.8 39 3.9 77 77 N N/A 30.28 1025 10 16 N/A
5:53 am 05:53 Clear 45 7.2 38 3.3 77 77 NE 3 6 30.29 1026 10 16 N/A
6:53 am 06:53 Sunny 45 7.2 39 3.9 80 80 NE 3 6 30.30 1026 10 16 N/A
7:53 am 07:53 Sunny 47 8.3 35 1.7 63 63 N N/A 30.31 1027 10 16 N/A
8:53 am 08:53 Mostly Sunny 49 9.4 36 2.2 61 61 NE 8 13 30.30 1026 10 16 N/A
9:53 am 09:53 Sunny 53 11.7 35 1.7 51 51 NNE 3 6 30.32 1027 10 16 N/A
10:53 am 10:53 Sunny 56 13.3 36 2.2 47 47 NE 10 17 30.29 1026 10 16 N/A
11:53 am 11:53 Sunny 60 15.6 35 1.7 39 39 NE 9 15 30.29 1026 10 16 N/A
12:53 pm 12:53 Sunny 61 16.1 36 2.2 39 39 NNE 8 13 30.27 1025 10 16 N/A
1:53 pm 13:53 Sunny 63 17.2 36 2.2 37 37 NE 14 22 30.25 1024 10 16 N/A
2:53 pm 14:53 Sunny 65 18.3 37 2.8 36 36 ENE 13 20 30.24 1024 10 16 N/A
3:53 pm 15:53 Sunny 65 18.3 37 2.8 36 36 NNE 10 17 30.22 1023 10 16 N/A
4:53 pm 16:53 Sunny 63 17.2 36 2.2 37 37 NE 9 15 30.20 1023 10 16 N/A
5:53 pm 17:53 Sunny 64 17.8 34 1.1 33 33 ENE 9 15 30.18 1022 10 16 N/A
6:53 pm 18:53 Sunny 63 17.2 35 1.7 35 35 ENE 6 9 30.17 1022 10 16 N/A
7:53 pm 19:53 Sunny 61 16.1 34 1.1 36 36 NNE 5 7 30.17 1022 10 16 N/A
8:53 pm 20:53 Clear 57 13.9 39 3.9 51 51 NE 6 9 30.16 1021 10 16 N/A
9:53 pm 21:53 Clear 56 13.3 34 1.1 44 44 NE 7 11 30.15 1021 10 16 N/A
10:53 pm 22:53 Clear 54 12.2 36 2.2 51 51 N N/A 30.15 1021 10 16 N/A
11:53 pm 23:53 Clear 51 10.6 38 3.3 61 61 N N/A 30.14 1021 10 16 N/A

Powered by AerisWeather